Location: Bois de la Silve
(44.4667°N, 6.7833°E)
Time: 04:27:17
(UTC+00:00)

Meteor 2-4 Rocket - Pass Details

Date: 14 July 2020
Orbit: 800 x 908 km, 81.2° (Epoch: 06 August)

Event Time Altitude Azimuth Distance (km) Brightness Sun altitude
Rises 01:57:21 0° 343° (NNW) 3,548 7.5 -16.7°
Reaches altitude 10° 01:59:57 10° 336° (NNW) 2,600 6.7 -16.5°
Maximum altitude 02:05:28 42° 268° (W) 1,272 4.3 -15.9°
Enters shadow 02:08:32 24° 213° (SSW) 1,784 4.8 -15.6°
